Location: Feudal
(51.8839°N, 107.6105°W)
Time: 04:55:22
(UTC+00:00)

Envisat - Pass Details

Date: 29 January 2022
Orbit: 764 x 765 km, 98.2° (Epoch: 25 May)

Event Time Altitude Azimuth Distance (km) Brightness Sun altitude
Rises 00:22:24 0° 208° (SSW) 3,220 7.1 -5.1°
Reaches altitude 10° 00:25:20 10° 225° (SW) 2,299 6.8 -5.5°
Maximum altitude 00:28:57 19° 271° (W) 1,743 6.0 -6.0°
Drops below altitude 10° 00:32:35 10° 317° (NW) 2,312 5.8 -6.5°
Sets 00:35:33 0° 335° (NNW) 3,244 6.3 -7.0°
